KOLE

Details ICAO KOLE
Name CATTARAUGUS CO OLEAN
Region United States
Timezone America/New_York (UTC-4.0)
Plans Departing 1
Arriving 1
Stats Elevation 2,135 ft / 651 m (AMSL)
Location 42.241779° -78.371193°
Runways 2
Magnetic Variation 10.769° W
Sunrise 2018-05-25 09:45:14 UTC / 2018-05-25 05:45:14 Local
Sunset 2018-05-26 00:38:32 UTC / 2018-05-25 20:38:32 Local
Advertisement - Login to hide

Runways

ID Width Length Bearing (true) Bearing (mag) Surface Threshold Offset Overrun Length
04 100 ft / 30 m 4,801 ft / 1,463 m 32.11° 42.88° Asphalt 100 ft / 30 m 0 ft / 0 m
16 105 ft / 32 m 2,118 ft / 646 m 148.11° 158.88° Grass 0 ft / 0 m 0 ft / 0 m
22 100 ft / 30 m 4,801 ft / 1,463 m 212.12° 222.89° Asphalt 200 ft / 61 m 0 ft / 0 m
34 105 ft / 32 m 2,118 ft / 646 m 328.11° 338.88° Grass 0 ft / 0 m 0 ft / 0 m

Approach Navaids

Runway Type Ident Frequency Range Bearing (true) Bearing (mag) Slope Elevation
22 Localiser IOLE 109.30 MHz 18 nm / 33 km 212.10° 222.87° - 2,108 ft / 643 m (AMSL)

Map

Weather


0- 5 10 15 20 25 30 35+ Temperature / ° C

Clouds and Precipitation
Forecast for 2018-05-25 18:00 UTC. Updated 11 minutes ago

Ground ~20,000 ft ~40,000 ft Winds

METAR

KOLE 251655Z AUTO 23004KT 10SM CLR 23/07 A3001 RMK AO2

TAF

Not found

Frequencies

Unicom 122.80 MHz CTAF/UNICOM
Warning: Do not use this data for real-world aviation or navigation. No guarantee of current accuracy is given.